Location: Bush Observatory
(40.2653°N, 94.3194°W)
Time: 17:57:16
(UTC-06:00)

OTV 5 (USA 277) - Visible Passes

Search period start: 14 November 2018 00:00
Search period end: 24 November 2018 00:00
Orbit: 339 x 348 km, 54.5° (Epoch: 13 November)

Date Brightness Start Highest point End Pass type
(mag) Time Alt. Az. Time Alt. Az. Time Alt. Az.
14 Nov ? 18:40:04 10° W 18:41:53 16° SW 18:43:41 10° SSW visible
15 Nov ? 17:28:00 10° NW 17:30:49 61° SW 17:33:38 10° SE visible
16 Nov ? 17:52:18 10° W 17:54:13 16° SW 17:56:06 10° S visible
23 Nov ? 06:19:50 10° S 06:21:51 18° SE 06:23:53 10° E visible
